User: anonymous   Login
Location: Unspecified
(0.0000°N, 0.0000°E)
Time: 14:01:18
(UTC+00:00)
Language:

IBEX - Orbit

View from above orbital plane
View from above orbital plane
View from above satellite
View from above satellite

Ground track
Ground track

The orbit data is extracted from the following two-line orbital elements,

1 33401U 08051A   17082.68669488 -.00000576 +00000-0 +00000-0 0  9997
2 33401 023.4292 094.3807 6472737 022.4834 004.0069 00.10632123003566
Epoch (UTC): 23 March 2017 16:28:50
Eccentricity: 0.6472737
inclination: 23.4292°
perigee height: 60009 km
apogee height: 303660 km
right ascension of ascending node: 94.3807°
argument of perigee: 22.4834°
revolutions per day: 0.10632123
mean anomaly at epoch: 4.0069°
orbit number at epoch: 356

The dashed part of the orbit path shows where the satellite is in the earth's shadow,  

DLR